Regional Weather Roundup
Issued by NWS

Home | Current Version | Previous Version | Text Only | Print | Product List | Glossary On
Versions: 1 2 3 4 5 6 7 8 9 10 11 12 13 14 15 16 17 18 19 20 21 22 23 24 25 26 27 28 29 30 31 32 33 34 35 36 37 38 39 40 41 42 43 44 45 46 47 48 49 50
000
ASUS43 KLSX 201759
RWRMO

WEATHER SUMMARY FOR MISSOURI
NATIONAL WEATHER SERVICE SPRINGFIELD MO
1200 PM CST SAT DEC 20 2014

NOTE: "FAIR" INDICATES FEW OR NO CLOUDS BELOW 12,000 FEET WITH NO
       SIGNIFICANT WEATHER AND/OR OBSTRUCTIONS TO VISIBILITY.
       CURRENT SKY AND/OR WEATHER CONDITIONS ARE NOT AVAILABLE FOR
       CHILLICOTHE AND FARMINGTON.

MOZ001>031-035>038-043-044-053-054-201900-
...NORTHERN AND WESTERN MISSOURI...

CITY           SKY/WX    TMP DP  RH WIND       PRES   REMARKS
KANSAS CTY INT CLOUDY    41  36  82 S9        30.14F
6HR MIN TEMP:  33; 6HR MAX TEMP:  41;

KANSAS C DTWN  MOSUNNY   44  36  73 S8        30.16F
6HR MIN TEMP:  35; 6HR MAX TEMP:  44;

LEE`S SUMMIT   CLOUDY    40  34  79 S8        30.16F
6HR MIN TEMP:  33; 6HR MAX TEMP:  40;

ST JOSEPH      CLOUDY    39  34  82 S10       30.15F
6HR MIN TEMP:  31; 6HR MAX TEMP:  39;

CHILLICOTHE      N/A     37  33  85 S8        30.19F
6HR MIN TEMP:  34; 6HR MAX TEMP:  37;

KIRKSVILLE     CLOUDY    36  36 100 SW6       30.19F FOG
6HR MIN TEMP:  32; 6HR MAX TEMP:  37; 6HR PCP: TRACE;


$$
MOZ066>068-077>081-088>096-101>105-201900-
...SOUTHWEST MISSOURI...

CITY           SKY/WX    TMP DP  RH WIND       PRES   REMARKS
SPRINGFIELD    CLOUDY    41  36  82 SW6       30.20F
6HR MIN TEMP:  37; 6HR MAX TEMP:  41;

JOPLIN         PTSUNNY   42  34  73 SW8       30.22F
6HR MIN TEMP:  36; 6HR MAX TEMP:  42;


$$
MOZ032>034-039>042-045>050-055>058-069>072-201900-
...CENTRAL MISSOURI...

CITY           SKY/WX    TMP DP  RH WIND       PRES   REMARKS
COLUMBIA       CLOUDY    40  37  89 S6        30.20F
6HR MIN TEMP:  35; 6HR MAX TEMP:  40;

JEFFERSON CITY CLOUDY    41  35  79 SE3       30.22F
6HR MIN TEMP:  37; 6HR MAX TEMP:  41;

ROLLA          CLOUDY    40  35  83 SE5       30.19F
6HR MIN TEMP:  35; 6HR MAX TEMP:  40;

SEDALIA        CLOUDY    39  35  86 SW8       30.21F
6HR MIN TEMP:  38; 6HR MAX TEMP:  39;

WHITEMAN AFB   CLOUDY    38  35  87 SW10      30.19F
WARRENSBURG    CLOUDY    37  34  87 S8        30.20F
OSAGE BEACH    CLOUDY    43  34  70 SW8       30.20F

$$
MOZ051-052-059>065-201900-
...EAST CENTRAL MISSOURI...

CITY           SKY/WX    TMP DP  RH WIND       PRES   REMARKS
ST LOUIS INTL  CLOUDY    41  32  70 SE3       30.25F
6HR MIN TEMP:  36; 6HR MAX TEMP:  41;

SPIRIT OF STL  CLOUDY    41  33  73 CALM      30.24F
6HR MIN TEMP:  35; 6HR MAX TEMP:  41;

ST CHARLES     CLOUDY    39  32  76 S5        30.25F
6HR MIN TEMP:  33; 6HR MAX TEMP:  39;


$$
MOZ072>076-082>087-097>100-106>115-201900-
...SOUTH CENTRAL AND SOUTHEAST MISSOURI...

CITY           SKY/WX    TMP DP  RH WIND       PRES   REMARKS
CAPE GIRARDEAU CLOUDY    40  31  70 CALM      30.28F
6HR MIN TEMP:  35; 6HR MAX TEMP:  40;

FARMINGTON     CLOUDY    39  34  81 SE5       30.25F
6HR MIN TEMP:  34; 6HR MAX TEMP:  39;

POPLAR BLUFF   CLOUDY    41  31  67 CALM      30.27F
6HR MIN TEMP:  36; 6HR MAX TEMP:  41;

WEST PLAINS    CLOUDY    38  34  85 CALM      30.23F
6HR MIN TEMP:  34; 6HR MAX TEMP:  38;


$$



USA.gov is the U.S. government's official web portal to all federal, state and local government web resources and services.